S51UL-6 Weather Reports


Display with metric or nautical units.
time (UTC)temp
F
wind
direction
speed
MPH
gust
MPH
rain 1hr
in
rain 24hr
in
rain mn
in
humidity
%
barometer
mb
20260503004411 41 203 0.0 0.0 0.00 0.00 0.00 80 1020.4
20260503003911 41 203 0.0 0.0 0.00 0.00 0.00 80 1020.5
20260503002912 41 203 0.0 0.0 0.00 0.00 0.00 80 1020.4
20260503002411 41 203 0.0 0.0 0.00 0.00 0.00 80 1020.4
20260503001911 42 203 0.0 0.0 0.00 0.00 0.00 80 1020.4
20260503001412 42 203 0.0 0.0 0.00 0.00 0.00 80 1020.5
20260503000411 42 203 0.0 0.0 0.00 0.00 0.00 78 1020.5
20260502235911 42 203 0.0 0.0 0.00 0.00 0.00 78 1020.5
20260502235409 42 203 0.0 0.0 0.00 0.00 0.00 78 1020.6
20260502234911 42 203 0.0 0.0 0.00 0.00 0.00 78 1020.5
20260502234410 42 203 0.0 0.0 0.00 0.00 0.00 77 1020.6
20260502233910 42 203 0.0 0.0 0.00 0.00 0.00 78 1020.6
20260502233410 43 203 0.0 0.0 0.00 0.00 0.00 78 1020.5
20260502231910 43 203 0.0 0.0 0.00 0.00 0.00 77 1020.7
20260502231412 43 203 0.0 0.0 0.00 0.00 0.00 77 1020.9
20260502230912 43 203 0.0 0.0 0.00 0.00 0.00 77 1020.9
20260502230412 44 203 0.0 0.0 0.00 0.00 0.00 77 1020.9
20260502225412 44 203 0.0 0.0 0.00 0.00 0.00 77 1020.8
20260502224910 44 203 0.0 0.0 0.00 0.00 0.00 77 1020.7
20260502224414 44 203 0.0 0.0 0.00 0.00 0.00 77 1020.9
20260502223912 44 203 0.0 0.0 0.00 0.00 0.00 77 1020.8
20260502223412 44 203 0.0 0.0 0.00 0.00 0.00 76 1020.8
20260502222913 44 203 0.0 0.0 0.00 0.00 0.00 76 1021.0
20260502222413 44 203 0.0 0.0 0.00 0.00 0.00 75 1020.9
20260502221912 45 203 0.0 0.0 0.00 0.00 0.00 75 1021.0
20260502221413 45 203 0.0 0.0 0.00 0.00 0.00 75 1021.0
20260502220913 45 203 0.0 0.0 0.00 0.00 0.00 75 1020.9
20260502220413 45 203 0.0 0.0 0.00 0.00 0.00 75 1021.0
20260502215413 46 203 0.0 0.0 0.00 0.00 0.00 74 1020.8
20260502214913 46 203 0.0 0.0 0.00 0.00 0.00 74 1020.9
20260502214413 46 203 0.0 0.0 0.00 0.00 0.00 73 1020.7
20260502213913 46 203 0.0 0.0 0.00 0.00 0.00 73 1020.9
20260502213413 46 203 0.0 0.0 0.00 0.00 0.00 73 1020.8
20260502212413 47 203 0.0 0.0 0.00 0.00 0.00 73 1021.0
20260502211913 47 203 0.0 0.0 0.00 0.00 0.00 72 1020.8
20260502211413 47 203 0.0 0.0 0.00 0.00 0.00 72 1020.9
20260502210913 47 203 0.0 0.0 0.00 0.00 0.00 72 1021.0
20260502205913 48 203 0.0 0.0 0.00 0.00 0.00 70 1021.1
20260502205413 48 203 0.0 0.0 0.00 0.00 0.00 70 1020.9
20260502204913 48 203 0.0 0.0 0.00 0.00 0.00 69 1021.1
20260502204413 49 203 0.0 0.0 0.00 0.00 0.00 69 1020.9
20260502203914 49 203 0.0 0.0 0.00 0.00 0.00 68 1021.0
20260502203414 49 203 0.0 0.0 0.00 0.00 0.00 68 1021.0
20260502202414 50 203 0.0 0.0 0.00 0.00 0.00 68 1020.9
20260502201914 50 203 0.0 0.0 0.00 0.00 0.00 67 1021.0
20260502201414 50 203 0.0 0.0 0.00 0.00 0.00 67 1021.0
20260502200914 51 203 0.0 0.0 0.00 0.00 0.00 67 1021.0
20260502200414 51 203 0.0 0.0 0.00 0.00 0.00 67 1021.2
20260502195914 51 203 0.0 0.0 0.00 0.00 0.00 67 1021.0
20260502195414 51 203 0.0 0.0 0.00 0.00 0.00 66 1021.0
20260502194914 52 203 0.0 0.0 0.00 0.00 0.00 66 1021.0
20260502194414 52 203 0.0 0.0 0.00 0.00 0.00 66 1020.9
20260502193912 52 203 0.0 0.0 0.00 0.00 0.00 65 1021.0
20260502192915 53 203 0.0 0.0 0.00 0.00 0.00 64 1021.0
20260502192415 53 203 0.0 0.0 0.00 0.00 0.00 64 1020.9
20260502191914 54 203 0.0 0.0 0.00 0.00 0.00 63 1020.8
20260502190914 54 203 0.0 0.0 0.00 0.00 0.00 62 1020.7
20260502185915 55 203 0.0 0.0 0.00 0.00 0.00 60 1020.6
20260502184915 56 203 0.0 0.0 0.00 0.00 0.00 58 1020.6
20260502184415 57 203 0.0 0.0 0.00 0.00 0.00 57 1020.5
20260502182915 58 203 0.0 0.0 0.00 0.00 0.00 55 1020.4
20260502182416 59 203 0.0 0.0 0.00 0.00 0.00 54 1020.3
20260502181915 60 203 0.0 0.0 0.00 0.00 0.00 52 1020.3
20260502181415 60 203 0.0 0.0 0.00 0.00 0.00 52 1020.2
20260502180915 61 203 0.0 0.0 0.00 0.00 0.00 51 1020.2
20260502180416 62 203 0.0 0.0 0.00 0.00 0.00 49 1020.2
20260502163916 71 158 0.0 0.0 0.00 0.00 0.00 37 1020.2
20260502163450 71 135 0.0 0.0 0.00 0.00 0.00 37 1020.2
20260502163416 71 135 0.0 0.0 0.00 0.00 0.00 37 1020.2
20260502162917 71 135 0.0 0.0 0.00 0.00 0.00 37 1020.3
20260502162417 71 135 0.0 0.0 0.00 0.00 0.00 38 1020.4
20260502161917 71 158 0.0 0.0 0.00 0.00 0.00 36 1020.3
20260502161417 72 158 0.0 4.0 0.00 0.00 0.00 37 1020.4
20260502160917 72 180 2.0 4.0 0.00 0.00 0.00 36 1020.5
20260502160417 72 135 1.0 4.0 0.00 0.00 0.00 36 1020.6
20260502151917 74 158 0.0 0.0 0.00 0.00 0.00 34 1021.1
20260502150917 74 158 2.0 4.0 0.00 0.00 0.00 35 1021.2
20260502150417 74 135 0.0 2.0 0.00 0.00 0.00 34 1021.3
20260502130419 79 158 0.0 2.0 0.00 0.00 0.00 32 1022.7
20260502122919 79 270 0.0 0.0 0.00 0.00 0.00 32 1023.0
20260502122419 78 315 0.0 2.0 0.00 0.00 0.00 31 1023.1
20260502121919 79 23 0.0 2.0 0.00 0.00 0.00 31 1023.1
20260502121419 78 158 1.0 3.0 0.00 0.00 0.00 32 1023.3
20260502120919 78 158 2.0 3.0 0.00 0.00 0.00 32 1023.3
20260502120420 78 158 2.0 4.0 0.00 0.00 0.00 31 1023.5
20260502115919 80 180 2.0 4.0 0.00 0.00 0.00 30 1023.4
20260502114919 81 135 0.0 0.0 0.00 0.00 0.00 30 1023.6
20260502114420 82 135 0.0 0.0 0.00 0.00 0.00 30 1023.5
20260502113920 82 158 0.0 0.0 0.00 0.00 0.00 30 1023.8
20260502113420 82 0 1.0 5.0 0.00 0.00 0.00 29 1023.7
20260502112919 83 23 0.0 5.0 0.00 0.00 0.00 29 1023.7
20260502112420 83 23 0.0 0.0 0.00 0.00 0.00 30 1023.6
20260502111920 82 23 0.0 2.0 0.00 0.00 0.00 31 1023.8
20260502111421 82 23 0.0 2.0 0.00 0.00 0.00 30 1023.7
20260502110920 82 23 0.0 0.0 0.00 0.00 0.00 31 1024.0
20260502110420 82 180 0.0 0.0 0.00 0.00 0.00 31 1024.1
20260502104920 78 23 0.0 0.0 0.00 0.00 0.00 33 1024.2
20260502104420 78 270 0.0 0.0 0.00 0.00 0.00 35 1024.4
20260502103921 76 23 0.0 0.0 0.00 0.00 0.00 36 1024.6
20260502102923 74 23 1.0 5.0 0.00 0.00 0.00 36 1024.4
20260502102420 74 23 1.0 4.0 0.00 0.00 0.00 36 1024.6
20260502101921 75 0 1.0 5.0 0.00 0.00 0.00 37 1024.5
20260502101420 74 135 0.0 5.0 0.00 0.00 0.00 37 1024.6
20260502100920 74 135 0.0 0.0 0.00 0.00 0.00 37 1024.8
20260502100421 74 23 0.0 0.0 0.00 0.00 0.00 38 1024.9
20260502091421 74 23 0.0 0.0 0.00 0.00 0.00 38 1025.4
20260502090921 74 23 0.0 0.0 0.00 0.00 0.00 38 1025.4
20260502090421 75 23 0.0 0.0 0.00 0.00 0.00 38 1025.4
20260502070923 58 135 0.0 0.0 0.00 0.00 0.00 70 1026.1
20260502070424 57 113 0.0 0.0 0.00 0.00 0.00 70 1026.0
20260502065923 56 135 0.0 0.0 0.00 0.00 0.00 71 1026.0
20260502065423 56 135 0.0 0.0 0.00 0.00 0.00 72 1026.1
20260502062923 52 45 0.0 0.0 0.00 0.00 0.00 77 1026.2
20260502062423 51 45 0.0 0.0 0.00 0.00 0.00 79 1026.2
20260502061423 49 45 0.0 0.0 0.00 0.00 0.00 80 1026.2
20260502060923 48 45 0.0 0.0 0.00 0.00 0.00 81 1026.3
20260502060424 48 45 0.0 0.0 0.00 0.00 0.00 81 1026.3
20260502054924 46 45 0.0 0.0 0.00 0.00 0.00 82 1026.2
20260502054424 45 23 0.0 0.0 0.00 0.00 0.00 82 1026.5
20260502053924 45 45 0.0 0.0 0.00 0.00 0.00 82 1026.4
20260502053422 44 45 0.0 0.0 0.00 0.00 0.00 83 1026.3
20260502052924 44 45 0.0 0.0 0.00 0.00 0.00 83 1026.6
20260502051924 43 45 0.0 0.0 0.00 0.00 0.00 84 1026.4
20260502050922 42 45 0.0 0.0 0.00 0.00 0.00 84 1026.5
20260502050422 42 68 0.0 0.0 0.00 0.00 0.00 84 1026.4
20260502045924 41 68 0.0 0.0 0.00 0.00 0.00 84 1026.5
20260502044924 40 90 0.0 0.0 0.00 0.00 0.00 84 1026.4
20260502044424 39 90 0.0 0.0 0.00 0.00 0.00 84 1026.2
20260502043926 39 90 0.0 0.0 0.00 0.00 0.00 84 1026.3
20260502042924 38 90 0.0 0.0 0.00 0.00 0.00 83 1026.2
20260502042424 37 90 0.0 0.0 0.00 0.00 0.00 83 1026.3
20260502041923 37 90 0.0 0.0 0.00 0.00 0.00 83 1026.1
20260502041425 37 90 0.0 0.0 0.00 0.00 0.00 83 1026.2
20260502035923 36 90 0.0 0.0 0.00 0.00 0.00 83 1026.0
20260502035425 36 90 0.0 0.0 0.00 0.00 0.00 83 1026.1
20260502034925 36 90 0.0 0.0 0.00 0.00 0.00 83 1026.2
20260502034425 35 90 0.0 0.0 0.00 0.00 0.00 83 1026.1
20260502033925 35 90 0.0 0.0 0.00 0.00 0.00 83 1026.2
20260502033425 35 90 0.0 0.0 0.00 0.00 0.00 82 1026.0
20260502032925 35 90 0.0 0.0 0.00 0.00 0.00 82 1025.9
20260502032427 35 90 0.0 0.0 0.00 0.00 0.00 82 1025.9
20260502031925 35 90 0.0 0.0 0.00 0.00 0.00 82 1026.0
20260502030925 35 90 0.0 0.0 0.00 0.00 0.00 82 1025.9
20260502025425 35 90 0.0 0.0 0.00 0.00 0.00 82 1026.2
20260502024924 35 90 0.0 0.0 0.00 0.00 0.00 82 1026.2
20260502023924 35 90 0.0 0.0 0.00 0.00 0.00 82 1026.3
20260502022924 35 90 0.0 0.0 0.00 0.00 0.00 81 1026.3
20260502022426 36 90 0.0 0.0 0.00 0.00 0.00 81 1026.2
20260502021924 36 90 0.0 0.0 0.00 0.00 0.00 81 1026.2
20260502021424 36 90 0.0 0.0 0.00 0.00 0.00 81 1026.2
20260502020924 36 90 0.0 0.0 0.00 0.00 0.00 81 1026.2
20260502020426 36 90 0.0 0.0 0.00 0.00 0.00 81 1026.3
20260502015924 36 90 0.0 0.0 0.00 0.00 0.00 81 1026.3
20260502015426 36 90 0.0 0.0 0.00 0.00 0.00 80 1026.3
20260502014426 36 90 0.0 0.0 0.00 0.00 0.00 80 1026.3
20260502013926 36 90 0.0 0.0 0.00 0.00 0.00 80 1026.3
20260502013424 36 90 0.0 0.0 0.00 0.00 0.00 79 1026.6
20260502012925 36 90 0.0 0.0 0.00 0.00 0.00 79 1026.4
20260502012425 36 90 0.0 0.0 0.00 0.00 0.00 79 1026.5
20260502011927 36 90 0.0 0.0 0.00 0.00 0.00 79 1026.3
20260502011425 37 90 0.0 0.0 0.00 0.00 0.00 79 1026.5
20260502010929 37 90 0.0 0.0 0.00 0.00 0.00 79 1026.5
20260502010427 37 90 0.0 0.0 0.00 0.00 0.00 79 1026.3
20260502005927 37 90 0.0 0.0 0.00 0.00 0.00 79 1026.5
20260502005427 37 90 0.0 0.0 0.00 0.00 0.00 79 1026.5